User: anonymous   Login
Location: Columbus
(29.5618°N, 96.6770°W)
Time: 22:29:13
(UTC-05:00)
Language:

Cosmos 2056 Rocket - Orbit

View from above orbital plane
View from above orbital plane
View from above satellite
View from above satellite

Ground track
Ground track

The orbit data is extracted from the following two-line orbital elements,

1 20433U 90004B   15180.57127053  .00000092  00000-0  40581-4 0  9993
2 20433 074.0354 235.2655 0040901 181.3869 330.0961 14.35849224332052
Epoch (UTC): 29 June 2015 13:42:37
Eccentricity: 0.0040901
inclination: 74.0354°
perigee height: 743 km
apogee height: 801 km
right ascension of ascending node: 235.2655°
argument of perigee: 181.3869°
revolutions per day: 14.35849224
mean anomaly at epoch: 330.0961°
orbit number at epoch: 33205

The dashed part of the orbit path shows where the satellite is in the earth's shadow,  

DLR